This demonstration page uses our WeatherBlox Daily Observations layout. Learn more.

Left ArrowRight Arrow

36.17497, -115.13722

Hourly Observations for September 6, 2016

Temp ( °F °C ) Dew Point ( °F °C ) Humidity (%) Winds ( mph kmh ) Pressure ( in mb ) Visibility ( mi km ) Precip ( " mm )
12:53 am 00:53 Clear 76 24.4 23 -5 14 14 N 6 9 29.72 1007 10 16.0934 0 0
1:53 am 01:53 Clear 76 24.4 23 -5 14 14 N 8 13 29.73 1007 10 16.0934 0 0
2:53 am 02:53 Clear 75 23.9 23 -5 14 14 N 7 11 29.75 1007 10 16.0934 0 0
3:53 am 03:53 Clear 74 23.3 22 -5.6 14 14 N 7 11 29.76 1008 10 16.0934 0 0
4:53 am 04:53 Clear 73 22.8 22 -5.6 15 15 NW 3 6 29.77 1008 10 16.0934 0 0
5:53 am 05:53 Clear 69 20.6 22 -5.6 17 17 Calm 29.8 1009 10 16.0934 0 0
6:53 am 06:53 Sunny 70 21.1 28 -2.2 21 21 Calm 29.83 1010 10 16.0934 0 0
7:53 am 07:53 Sunny 73 22.8 25 -3.9 17 17 Calm 29.85 1011 10 16.0934 0 0
8:53 am 08:53 Sunny 77 25 24 -4.4 14 14 Calm 29.86 1011 10 16.0934 0 0
9:53 am 09:53 Sunny 81 27.2 25 -3.9 13 13 VRB 5 7 29.87 1012 10 16.0934 0 0
10:53 am 10:53 Sunny 84 28.9 23 -5 10 10 S 5 7 29.88 1012 10 16.0934 0 0
11:53 am 11:53 Sunny 86 30 23 -5 10 10 ESE 5 7 29.87 1011 10 16.0934 0 0
12:53 pm 12:53 Sunny 89 31.7 23 -5 9 9 SE 8 13 29.85 1011 10 16.0934 0 0
1:53 pm 13:53 Sunny 91 32.8 23 -5 8 8 SSE 13 20 29.83 1010 10 16.0934 0 0
2:53 pm 14:53 Sunny 92 33.3 22 -5.6 8 8 VRB 7 11 29.8 1009 10 16.0934 0 0
3:53 pm 15:53 Sunny 94 34.4 21 -6.1 7 7 SE 10 17 29.78 1009 10 16.0934 0 0
4:53 pm 16:53 Sunny 94 34.4 22 -5.6 7 7 SSE 6 9 29.77 1008 10 16.0934 0 0
5:53 pm 17:53 Sunny 93 33.9 22 -5.6 7 7 SSE 13 20 29.78 1008 10 16.0934 0 0
6:53 pm 18:53 Sunny 90 32.2 21 -6.1 8 8 SSE 10 17 29.78 1009 10 16.0934 0 0
7:53 pm 19:53 Clear 87 30.6 22 -5.6 9 9 SE 6 9 29.8 1009 10 16.0934 0 0
8:53 pm 20:53 Clear 84 28.9 23 -5 10 10 E 5 7 29.82 1010 10 16.0934 0 0
9:53 pm 21:53 Clear 83 28.3 21 -6.1 10 10 NE 6 9 29.83 1010 10 16.0934 0 0
10:53 pm 22:53 Clear 80 26.7 25 -3.9 13 13 WNW 6 9 29.84 1011 10 16.0934 0 0
11:53 pm 23:53 Clear 78 25.6 26 -3.3 15 15 NW 5 7 29.85 1011 10 16.0934 0 0

Powered by AerisWeather